Regional Weather Roundup
Issued by NWS

Home | Current Version | Previous Version | Graphics & Text | Print | Product List | Glossary On
Versions: 1 2 3 4 5 6 7 8 9 10 11 12 13 14 15 16 17 18 19 20 21 22 23 24 25 26 27 28 29 30 31 32 33 34 35 36 37 38 39 40 41 42 43 44 45 46 47 48 49 50
000
ASUS43 KIND 290159
RWRIN

WEATHER ROUNDUP FOR INDIANA
NATIONAL WEATHER SERVICE INDIANAPOLIS IN
1000 PM EDT THU MAY 28 2015

NOTE: "FAIR" INDICATES FEW OR NO CLOUDS BELOW 12,000 FEET WITH NO
SIGNIFICANT WEATHER AND/OR OBSTRUCTIONS TO VISIBILITY.

* - STATION DOES NOT REPORT WEATHER SUCH AS PRECIPITATION OR FOG.

+ - STATION NOT QUALITY CONTROLLED BY THE NATIONAL WEATHER SERVICE.
    USE DATA WITH CAUTION...ESPECIALLY DEWPOINT AND RELATIVE
    HUMIDITY OBSERVATIONS.

INZ001>003-010>013-019-020-290300-
NORTHWEST INDIANA

CITY           SKY/WX    TMP DP  RH WIND       PRES   REMARKS
GARY /AIRPORT/ PTCLDY    64  59  82 CALM      30.09F
RENSSELAER +   PTCLDY    72  54  53 E3        30.10S

$$

LMZ046-743>745-290300-
SOUTHERN LAKE MICHIGAN

STATION/POSITION TIME  TEMP    WIND        PRES    WAVE
                       AIR SEA DIR/SP/G            HT
                 (UTC) (F)     (DEG/KT/KT) (MB)    (FT)
BURNS HARBOR     0100   62      80/  9/ 11 1019.3F
MICHIGAN CITY    0100   65      40/  9/  9   N/A
5NW MICH CITY    0100   58 55   70/  6/  8   N/A     1

$$

INZ004-005-014>016-021>024-290300-
NORTH CENTRAL INDIANA

CITY           SKY/WX    TMP DP  RH WIND       PRES   REMARKS
GOSHEN         PTCLDY    67  58  72 E7        30.14S
SOUTH BEND     PTCLDY    74  56  53 E7        30.13S

$$

INZ006>009-017-018-025>027-290300-
NORTHEAST INDIANA

CITY           SKY/WX    TMP DP  RH WIND       PRES   REMARKS
ANGOLA *+      CLEAR     70  55  60 E7        30.17S
FORT WAYNE     MOCLDY    71  61  70 E8        30.15S

$$

INZ028-029-035-036-043>045-051>053-290300-
WEST CENTRAL INDIANA

CITY           SKY/WX    TMP DP  RH WIND       PRES   REMARKS
CRAWFORDSVL +  PTCLDY    73  55  53 SE6       30.11S
GREENCASTLE +  PTCLDY    70  59  68 SE3       30.13R
LAFAYETTE      MOCLDY    72  58  61 CALM      30.09S
TERRE HAUTE    MOCLDY    75  63  66 SE6       30.11R

$$

INZ030>032-037>040-046>048-054>057-064-065-290300-
CENTRAL INDIANA

CITY           SKY/WX    TMP DP  RH WIND       PRES   REMARKS
COLUMBUS       CLEAR     72  59  64 SE6       30.14R
GREENWOOD *+   CLEAR     75  59  57 SE3       30.14S
INDIANAPOLIS   PTCLDY    74  61  63 SE7       30.11S
-EAGLE CREEK   CLEAR     76  62  62 S3        30.12R
KOKOMO *+      CLEAR     73  57  56 SE6       30.12R
MT COMFORT *+  CLEAR     75  54  46 S3        30.14R
SHELBYVILLE    CLEAR     76  64  66 SE7       30.13R

$$

INZ033-034-041-042-049-050-058-059-290300-
EAST CENTRAL INDIANA

CITY           SKY/WX    TMP DP  RH WIND       PRES   REMARKS
MUNCIE         CLEAR     75  59  57 SE5       30.14S

$$

INZ060-061-067>069-081>083-085>088-290300-
SOUTHWEST INDIANA

CITY           SKY/WX    TMP DP  RH WIND       PRES   REMARKS
EVANSVILLE     PTCLDY    76  65  68 E3        30.10R
HUNTINGBURG *+ CLEAR     72  64  78 E6        30.12R

$$

INZ062-063-066-070>080-084-089>092-290300-
SOUTH CENTRAL AND SOUTHEAST INDIANA

CITY           SKY/WX    TMP DP  RH WIND       PRES   REMARKS
BLOOMINGTON    CLEAR     71  65  81 CALM      30.13R
MADISON *+     PTCLDY    72  63  73 CALM      30.18R
SEYMOUR +      CLEAR     73  63  68 S3        30.14R

$$



USA.gov is the U.S. government's official web portal to all federal, state and local government web resources and services.